[keps] orb06243.amsat
Ray Hoad
r.hoad@att.net
Thu Aug 31 18:43:03 PDT 2006
SB KEPS @ AMSAT $ORB06243.O
Orbital Elements 06243.OSCAR
HR AMSAT ORBITAL ELEMENTS FOR OSCAR SATELLITES
FROM WA5QGD FORT WORTH,TX August 31, 2006
Subscribe/unsubscribe to KEPS at http://www.amsat.org/mailman/listinfo/keps
BID: ORB06243.O
TO ALL RADIO AMATEURS BT
Satellite: AO-07
Catalog number: 07530
Epoch time: 06242.80562893
Element set: 668
Inclination: 101.5626 deg
RA of node: 283.8557 deg
Eccentricity: 0.0012220
Arg of perigee: 101.5416 deg
Mean anomaly: 258.7031 deg
Mean motion: 12.53571531 rev/day
Decay rate: -2.8e-07 rev/day^2
Epoch rev: 45473
Checksum: 285
Satellite: AO-10
Catalog number: 14129
Epoch time: 06240.17287781
Element set: 0308
Inclination: 027.3414 deg
RA of node: 318.4502 deg
Eccentricity: 0.6030831
Arg of perigee: 312.9332 deg
Mean anomaly: 010.3390 deg
Mean motion: 02.05865176 rev/day
Decay rate: -1.25e-06 rev/day^2
Epoch rev: 17453
Checksum: 265
Satellite: UO-11
Catalog number: 14781
Epoch time: 06242.71651377
Element set: 161
Inclination: 098.2070 deg
RA of node: 254.5173 deg
Eccentricity: 0.0009820
Arg of perigee: 031.3727 deg
Mean anomaly: 328.8054 deg
Mean motion: 14.79453964 rev/day
Decay rate: -1.76e-06 rev/day^2
Epoch rev: 20678
Checksum: 307
Satellite: RS-10/11
Catalog number: 18129
Epoch time: 06242.60152103
Element set: 0084
Inclination: 082.9237 deg
RA of node: 273.1115 deg
Eccentricity: 0.0010126
Arg of perigee: 245.3510 deg
Mean anomaly: 114.6588 deg
Mean motion: 13.72778040 rev/day
Decay rate: 4.5e-07 rev/day^2
Epoch rev: 96136
Checksum: 266
Satellite: RS-15
Catalog number: 23439
Epoch time: 06242.96054546
Element set: 0996
Inclination: 064.8169 deg
RA of node: 116.2947 deg
Eccentricity: 0.0166607
Arg of perigee: 241.1875 deg
Mean anomaly: 117.2232 deg
Mean motion: 11.27551981 rev/day
Decay rate: -3.9e-07 rev/day^2
Epoch rev: 48097
Checksum: 332
Satellite: FO-29
Catalog number: 24278
Epoch time: 06242.93829525
Element set: 0320
Inclination: 098.5150 deg
RA of node: 237.1394 deg
Eccentricity: 0.0351330
Arg of perigee: 115.7724 deg
Mean anomaly: 248.0111 deg
Mean motion: 13.52923633 rev/day
Decay rate: 1.5e-07 rev/day^2
Epoch rev: 49565
Checksum: 295
Satellite: SO-33
Catalog number: 25509
Epoch time: 06242.82244105
Element set: 0734
Inclination: 031.4323 deg
RA of node: 067.3597 deg
Eccentricity: 0.0354997
Arg of perigee: 048.8940 deg
Mean anomaly: 314.1778 deg
Mean motion: 14.28113951 rev/day
Decay rate: 3.4e-07 rev/day^2
Epoch rev: 40971
Checksum: 309
Satellite: AO-40
Catalog number: 26609
Epoch time: 06242.91088851
Element set: 773
Inclination: 005.9231 deg
RA of node: 223.1109 deg
Eccentricity: 0.7963446
Arg of perigee: 196.6962 deg
Mean anomaly: 098.0341 deg
Mean motion: 01.25583088 rev/day
Decay rate: .00000000 rev/day^2
Epoch rev: 2679
Checksum: 306
Satellite: VO-52
Catalog number: 28650
Epoch time: 06242.63624647
Element set: 0417
Inclination: 097.8668 deg
RA of node: 314.3321 deg
Eccentricity: 0.0028399
Arg of perigee: 118.5799 deg
Mean anomaly: 241.8303 deg
Mean motion: 14.81163848 rev/day
Decay rate: 3.84e-06 rev/day^2
Epoch rev: 07140
Checksum: 326
/EX
SB KEPS @ AMSAT $ORB06243.D
Orbital Elements 06243.MICROS
HR AMSAT ORBITAL ELEMENTS FOR THE MICROSATS
FROM WA5QGD FORT WORTH,TX August 31, 2006
Send SUBSCRIBE KEPS/UNSUBSCRIBE KEPS to majordomo@amsat.org only
BID: ORB06243.D
TO ALL RADIO AMATEURS BT
Satellite: AO-16
Catalog number: 20439
Epoch time: 06242.57813919
Element set: 0833
Inclination: 098.1883 deg
RA of node: 248.3418 deg
Eccentricity: 0.0010915
Arg of perigee: 338.6015 deg
Mean anomaly: 021.4704 deg
Mean motion: 14.31731220 rev/day
Decay rate: 4.0e-08 rev/day^2
Epoch rev: 86696
Checksum: 298
Satellite: WO-18
Catalog number: 20441
Epoch time: 06243.60913647
Element set: 32
Inclination: 098.1871 deg
RA of node: 253.9386 deg
Eccentricity: 0.0011446
Arg of perigee: 335.5228 deg
Mean anomaly: 024.5407 deg
Mean motion: 14.31801378 rev/day
Decay rate: 9.0e-08 rev/day^2
Epoch rev: 86717
Checksum: 298
Satellite: LO-19
Catalog number: 20442
Epoch time: 06243.64377507
Element set: 769
Inclination: 098.1876 deg
RA of node: 258.8607 deg
Eccentricity: 0.0011793
Arg of perigee: 334.5882 deg
Mean anomaly: 025.4724 deg
Mean motion: 14.31974132 rev/day
Decay rate: -1.0e-07 rev/day^2
Epoch rev: 86725
Checksum: 327
Satellite: UO-22
Catalog number: 21575
Epoch time: 06242.69945711
Element set: 0787
Inclination: 098.3029 deg
RA of node: 198.0870 deg
Eccentricity: 0.0006761
Arg of perigee: 200.8457 deg
Mean anomaly: 159.2444 deg
Mean motion: 14.39560097 rev/day
Decay rate: 1.4e-07 rev/day^2
Epoch rev: 79373
Checksum: 330
Satellite: KO-23
Catalog number: 22077
Epoch time: 06242.69501942
Element set: 885
Inclination: 066.0879 deg
RA of node: 306.0096 deg
Eccentricity: 0.0005276
Arg of perigee: 338.2541 deg
Mean anomaly: 021.8252 deg
Mean motion: 12.86437721 rev/day
Decay rate: -3.7e-07 rev/day^2
Epoch rev: 66012
Checksum: 298
Satellite: AO-27
Catalog number: 22825
Epoch time: 06242.44818090
Element set: 484
Inclination: 098.2896 deg
RA of node: 220.6574 deg
Eccentricity: 0.0009375
Arg of perigee: 045.2267 deg
Mean anomaly: 314.9689 deg
Mean motion: 14.29181733 rev/day
Decay rate: -1.8e-07 rev/day^2
Epoch rev: 67396
Checksum: 341
Satellite: IO-26
Catalog number: 22826
Epoch time: 06242.68532004
Element set: 176
Inclination: 098.2842 deg
RA of node: 222.0657 deg
Eccentricity: 0.0009803
Arg of perigee: 042.8467 deg
Mean anomaly: 317.3468 deg
Mean motion: 14.29425834 rev/day
Decay rate: .00000000 rev/day^2
Epoch rev: 67407
Checksum: 293
Satellite: PO-28
Catalog number: 22829
Epoch time: 06242.64300738
Element set: 459
Inclination: 098.2743 deg
RA of node: 223.2244 deg
Eccentricity: 0.0010220
Arg of perigee: 019.4034 deg
Mean anomaly: 340.7524 deg
Mean motion: 14.30120621 rev/day
Decay rate: -5.7e-07 rev/day^2
Epoch rev: 67428
Checksum: 270
Satellite: TO-31
Catalog number: 25396
Epoch time: 06242.72911611
Element set: 611
Inclination: 098.4715 deg
RA of node: 300.3798 deg
Eccentricity: 0.0002438
Arg of perigee: 001.5057 deg
Mean anomaly: 358.6119 deg
Mean motion: 14.23710740 rev/day
Decay rate: -1.69e-06 rev/day^2
Epoch rev: 42295
Checksum: 289
Satellite: GO-32
Catalog number: 25397
Epoch time: 06242.78704924
Element set: 97
Inclination: 098.4602 deg
RA of node: 297.0171 deg
Eccentricity: 0.0001464
Arg of perigee: 035.5725 deg
Mean anomaly: 324.5532 deg
Mean motion: 14.23109374 rev/day
Decay rate: -1.15e-06 rev/day^2
Epoch rev: 42285
Checksum: 297
Satellite: UO-36
Catalog number: 25693
Epoch time: 06242.77375152
Element set: 127
Inclination: 064.5604 deg
RA of node: 013.6182 deg
Eccentricity: 0.0026458
Arg of perigee: 323.1174 deg
Mean anomaly: 036.8110 deg
Mean motion: 14.78611263 rev/day
Decay rate: -1.21e-06 rev/day^2
Epoch rev: 39681
Checksum: 287
Satellite: MO-46
Catalog number: 26548
Epoch time: 06242.76002229
Element set: 0584
Inclination: 064.5602 deg
RA of node: 001.0773 deg
Eccentricity: 0.0044494
Arg of perigee: 236.5200 deg
Mean anomaly: 123.1656 deg
Mean motion: 14.83009174 rev/day
Decay rate: 1.37e-06 rev/day^2
Epoch rev: 32047
Checksum: 276
Satellite: NO-44
Catalog number: 26931
Epoch time: 06242.79577121
Element set: 0390
Inclination: 067.0525 deg
RA of node: 175.5026 deg
Eccentricity: 0.0005879
Arg of perigee: 252.2027 deg
Mean anomaly: 107.8430 deg
Mean motion: 14.29450264 rev/day
Decay rate: -9.0e-08 rev/day^2
Epoch rev: 25659
Checksum: 303
Satellite: SO-50
Catalog number: 27607
Epoch time: 06242.46455216
Element set: 108
Inclination: 064.5558 deg
RA of node: 247.6160 deg
Eccentricity: 0.0036667
Arg of perigee: 117.3948 deg
Mean anomaly: 243.0889 deg
Mean motion: 14.71166287 rev/day
Decay rate: -1.0e-07 rev/day^2
Epoch rev: 19835
Checksum: 319
Satellite: CO-57
Catalog number: 27848
Epoch time: 06242.53133348
Element set: 0804
Inclination: 098.7192 deg
RA of node: 249.1001 deg
Eccentricity: 0.0009334
Arg of perigee: 208.9080 deg
Mean anomaly: 151.1580 deg
Mean motion: 14.20281084 rev/day
Decay rate: 6.5e-07 rev/day^2
Epoch rev: 16419
Checksum: 290
Satellite: AO-51
Catalog number: 28375
Epoch time: 06242.67633046
Element set: 616
Inclination: 098.1581 deg
RA of node: 291.2918 deg
Eccentricity: 0.0084665
Arg of perigee: 342.9469 deg
Mean anomaly: 016.8881 deg
Mean motion: 14.40530671 rev/day
Decay rate: 5.0e-08 rev/day^2
Epoch rev: 11388
Checksum: 324
Satellite: XO-53
Catalog number: 28894
Epoch time: 06242.69745403
Element set: 0641
Inclination: 098.1560 deg
RA of node: 139.8034 deg
Eccentricity: 0.0016956
Arg of perigee: 304.0284 deg
Mean anomaly: 055.9309 deg
Mean motion: 14.59502089 rev/day
Decay rate: 4.7e-07 rev/day^2
Epoch rev: 04484
Checksum: 323
Satellite: CO-56
Catalog number: 28941
Epoch time: 06242.97644674
Element set: 0198
Inclination: 098.1735 deg
RA of node: 268.9202 deg
Eccentricity: 0.0272072
Arg of perigee: 210.6448 deg
Mean anomaly: 147.8656 deg
Mean motion: 15.27087787 rev/day
Decay rate: 1.3002e-04 rev/day^2
Epoch rev: 02895
Checksum: 348
/EX
SB KEPS @ AMSAT $ORB06243.W
Orbital Elements 06243.WEATHER
HR AMSAT ORBITAL ELEMENTS FOR WEATHER SATELLITES
FROM WA5QGD FORT WORTH,TX August 31, 2006
Send SUBSCRIBE KEPS/UNSUBSCRIBE KEPS to majordomo@amsat.org only
BID: ORB06243.W
TO ALL RADIO AMATEURS BT
Satellite: NOAA-10
Catalog number: 16969
Epoch time: 06243.43407015
Element set: 330
Inclination: 098.7595 deg
RA of node: 255.2282 deg
Eccentricity: 0.0011698
Arg of perigee: 294.2685 deg
Mean anomaly: 065.7284 deg
Mean motion: 14.27302264 rev/day
Decay rate: -2.2e-07 rev/day^2
Epoch rev: 3789
Checksum: 313
Satellite: NOAA-11
Catalog number: 19531
Epoch time: 06243.32397632
Element set: 264
Inclination: 098.8252 deg
RA of node: 330.9266 deg
Eccentricity: 0.0012193
Arg of perigee: 133.0728 deg
Mean anomaly: 227.1486 deg
Mean motion: 14.14814648 rev/day
Decay rate: -2.14e-06 rev/day^2
Epoch rev: 92516
Checksum: 298
